TimeEDT,TemperatureF,Dew PointF,Humidity,Sea Level PressureIn,VisibilityMPH,Wind Direction,Wind SpeedMPH,Gust SpeedMPH,PrecipitationIn,Events,Conditions,WindDirDegrees,DateUTC
12:52 AM,46.9,35.1,63,30.09,10.0,NNE,10.4,-,N/A,,Mostly Cloudy,20,2012-10-28 04:52:00
1:52 AM,46.9,35.1,63,30.06,10.0,North,13.8,23.0,N/A,,Overcast,10,2012-10-28 05:52:00
2:52 AM,45.0,34.0,65,30.06,10.0,North,12.7,-,N/A,,Overcast,360,2012-10-28 06:52:00
3:52 AM,45.0,34.0,65,30.06,10.0,NNE,10.4,-,N/A,,Overcast,30,2012-10-28 07:52:00
4:52 AM,44.1,34.0,68,30.05,10.0,North,10.4,-,N/A,,Overcast,360,2012-10-28 08:52:00
5:52 AM,43.0,34.0,71,30.06,10.0,North,11.5,-,N/A,,Overcast,350,2012-10-28 09:52:00
6:52 AM,43.0,34.0,71,30.05,10.0,North,12.7,-,N/A,,Overcast,360,2012-10-28 10:52:00
7:52 AM,43.0,34.0,71,30.06,10.0,North,12.7,-,N/A,,Overcast,350,2012-10-28 11:52:00
8:52 AM,43.0,34.0,71,30.08,10.0,North,15.0,23.0,N/A,,Overcast,360,2012-10-28 12:52:00
9:52 AM,44.1,35.1,71,30.05,10.0,North,18.4,28.8,N/A,,Overcast,10,2012-10-28 13:52:00
10:52 AM,45.0,35.1,68,30.06,10.0,North,19.6,29.9,N/A,,Overcast,10,2012-10-28 14:52:00
11:52 AM,46.0,35.1,66,30.04,10.0,North,16.1,26.5,N/A,,Overcast,360,2012-10-28 15:52:00
12:07 PM,46.4,35.6,66,30.04,10.0,North,18.4,24.2,N/A,,Overcast,350,2012-10-28 16:07:00
12:52 PM,46.9,35.1,63,30.04,10.0,North,20.7,-,N/A,,Overcast,350,2012-10-28 16:52:00
1:52 PM,46.9,34.0,61,30.04,10.0,North,19.6,24.2,N/A,,Overcast,350,2012-10-28 17:52:00
2:52 PM,48.0,34.0,58,30.03,10.0,North,18.4,-,N/A,,Overcast,350,2012-10-28 18:52:00
4:52 PM,48.0,34.0,58,30.03,10.0,North,19.6,25.3,N/A,,Overcast,350,2012-10-28 20:52:00
5:52 PM,46.9,34.0,61,30.03,10.0,North,15.0,-,N/A,,Overcast,350,2012-10-28 21:52:00
6:52 PM,46.9,34.0,61,30.05,10.0,North,18.4,-,N/A,,Overcast,350,2012-10-28 22:52:00
7:52 PM,46.0,34.0,63,30.06,10.0,NNW,12.7,-,N/A,,Overcast,340,2012-10-28 23:52:00
8:52 PM,46.0,32.0,58,30.06,10.0,North,18.4,32.2,N/A,,Overcast,350,2012-10-29 00:52:00
9:52 PM,45.0,32.0,60,30.06,10.0,NNW,15.0,25.3,N/A,,Overcast,340,2012-10-29 01:52:00
10:52 PM,44.1,32.0,63,30.06,10.0,North,16.1,23.0,N/A,,Overcast,350,2012-10-29 02:52:00
11:52 PM,43.0,30.9,62,30.06,10.0,North,12.7,20.7,N/A,,Mostly Cloudy,350,2012-10-29 03:52:00